Flight Track Log - Related Links

Times and Time Zones

All times are in EDT time to prevent confusion due to time zone crossing. See the ASQ6041 flight status page for this flight to view local times or setup timezone preferences in your user account.

Time Position Orientation Groundspeed Altitude Reporting Facility
EDT Latitude Longitude Course Direction KTS MPH feet Rate Location/Type
Sat 02:06:08 PM 40.7831 -96.8039 226° Southwest 205 236 3,900  Level Minneapolis Center
Sat 02:06:13 PM 40.7936 -96.8144 323° Northwest 184 212 4,000 2,164 Climbing Minneapolis Center
Sat 02:07:09 PM 40.7736 -96.8928 251° West 259 298 6,100 2,226 Climbing Minneapolis Center
Sat 02:07:15 PM 40.7850 -96.9033 325° Northwest 232 267 6,300 2,471 Climbing Minneapolis Center
Sat 02:08:00 PM 40.8056 -97.2543 257° West  Level Estimated
Sat 02:08:17 PM 40.7744 -96.9989 262° West 257 296 8,900  Level Minneapolis Center
Sat 02:09:00 PM 40.7878 -97.3768 259° West  Level FlightAware Approximate
Sat 02:09:19 PM 40.7639 -97.0942 262° West 262 302 11,200  Level Minneapolis Center
Sat 02:10:00 PM 40.7761 -97.5004 261° West  Level Estimated
Sat 02:10:21 PM 40.7536 -97.1781 261° West 278 320 12,400  Level Minneapolis Center
Sat 02:11:23 PM 40.7353 -97.3436 262° West 321 369 14,300 1,597 Climbing Minneapolis Center
Sat 02:12:25 PM 40.7208 -97.4672 261° West 341 392 15,700 1,355 Climbing Minneapolis Center
Sat 02:13:27 PM 40.7061 -97.5931 261° West 346 398 17,100 1,268 Climbing Minneapolis Center
Sat 02:14:28 PM 40.6906 -97.7228 261° West 354 407 18,300 1,220 Climbing Minneapolis Center
Sat 02:15:30 PM 40.6756 -97.8528 261° West 357 411 19,600 1,452 Climbing Minneapolis Center
Sat 02:16:32 PM 40.6592 -97.9836 261° West 360 414 21,300 1,548 Climbing Minneapolis Center
Sat 02:17:34 PM 40.6436 -98.1103 261° West 354 407 22,800 1,645 Climbing Minneapolis Center
Sat 02:18:36 PM 40.6250 -98.2619 261° West 351 404 24,700 1,610 Climbing Minneapolis Center
Sat 02:19:37 PM 40.6089 -98.3878 260° West 349 402 26,100 1,463 Climbing Minneapolis Center
Sat 02:20:39 PM 40.6125 -98.5128 272° West 345 397 27,700 1,597 Climbing Minneapolis Center
Sat 02:21:41 PM 40.6219 -98.6381 276° West 345 397 29,400 1,548 Climbing Minneapolis Center
Sat 02:22:43 PM 40.6333 -98.7592 277° West 336 387 30,900 1,220 Climbing Minneapolis Center
Sat 02:23:44 PM 40.6447 -98.8817 277° West 334 384 31,900 537 Climbing Minneapolis Center
Sat 02:24:46 PM 40.6553 -99.0106 276° West 346 398 32,000 97 Climbing Minneapolis Center
Sat 02:25:48 PM 40.6681 -99.1528 277° West 375 432 32,100 726 Climbing Minneapolis Center
Sat 02:26:50 PM 40.6806 -99.2981 277° West 392 451 33,500 1,561 Climbing Minneapolis Center
Sat 02:27:51 PM 40.6947 -99.4650 276° West 384 442 35,300 1,220 Climbing Minneapolis Center
Sat 02:28:53 PM 40.7042 -99.5717 277° West 373 429 36,000 339 Climbing Minneapolis Center
Sat 02:29:55 PM 40.7169 -99.7367 276° West 374 430 36,000  Level Minneapolis Center
Sat 02:30:57 PM 40.7283 -99.8742 276° West 376 433 36,000  Level Minneapolis Center
Sat 02:31:58 PM 40.7383 -100.0136 275° West 379 436 36,000  Level Minneapolis Center
Sat 02:33:00 PM 40.7497 -100.1522 276° West 380 437 36,000  Level Minneapolis Center
Sat 02:34:02 PM 40.7611 -100.2947 276° West 384 442 36,000  Level Minneapolis Center
Sat 02:35:04 PM 40.7681 -100.4361 274° West 387 445 36,000  Level Minneapolis Center
Sat 02:36:06 PM 40.7372 -100.6003 256° West 385 443 36,000  Level Minneapolis Center
Sat 02:37:34 PM 40.7056 -100.7883 258° West 385 443 36,000  Level Denver Center
Sat 02:38:36 PM 40.6869 -100.9211 260° West 381 438 36,000  Level Denver Center
Sat 02:39:38 PM 40.6653 -101.0706 259° West 373 429 36,000  Level Denver Center
Sat 02:40:39 PM 40.6461 -101.1994 259° West 373 429 36,000  Level Denver Center
Sat 02:41:41 PM 40.6233 -101.3489 259° West 372 428 36,000  Level Denver Center
Sat 02:42:43 PM 40.6028 -101.4761 258° West 373 429 36,000  Level Denver Center
Sat 02:43:45 PM 40.5800 -101.6236 259° West 368 423 36,000  Level Denver Center
Sat 02:44:46 PM 40.5603 -101.7506 258° West 370 426 36,000  Level Denver Center
Sat 02:45:48 PM 40.5403 -101.8769 258° West 369 425 36,000  Level Denver Center
Sat 02:46:50 PM 40.5156 -102.0247 258° West 371 427 36,000  Level Denver Center
Sat 02:47:51 PM 40.4939 -102.1536 258° West 377 434 36,000  Level Denver Center
Sat 02:48:53 PM 40.4700 -102.3053 258° West 380 437 36,000  Level Denver Center
Sat 02:49:55 PM 40.4475 -102.4339 257° West 379 436 36,000  Level Denver Center
Sat 02:50:56 PM 40.4219 -102.5831 257° West 376 433 36,000  Level Denver Center
Sat 02:51:58 PM 40.4036 -102.7058 259° West 372 428 36,000  Level Denver Center
Sat 02:53:00 PM 40.3806 -102.8419 258° West 383 441 36,000 -439 Level Denver Center
Sat 02:54:01 PM 40.3550 -102.9869 257° West 404 465 35,100 -1,561 Descending Denver Center
Sat 02:55:03 PM 40.3294 -103.1358 257° West 420 483 32,800 -2,488 Descending Denver Center
Sat 02:56:04 PM 40.2989 -103.3164 258° West 428 493 30,000 -2,439 Descending Denver Center
Sat 02:57:06 PM 40.2717 -103.4694 257° West 433 498 27,800 -2,226 Descending Denver Center
Sat 02:58:08 PM 40.2442 -103.6228 257° West 433 498 25,400 -2,341 Descending Denver Center
Sat 02:59:09 PM 40.2186 -103.7647 257° West 386 444 23,000 -2,049 Descending Denver Center
Sat 03:00:11 PM 40.1878 -103.8772 250° West 327 376 21,200 -1,694 Descending Denver Center
Sat 03:01:13 PM 40.1367 -103.9892 239° Southwest 324 373 19,500 -1,610 Descending Denver Center
Sat 03:02:14 PM 40.0908 -104.0881 239° Southwest 328 377 17,900 -1,518 Descending Denver Center
Sat 03:04:03 PM 40.0000 -104.2667 236° Southwest 302 348 15,200 -1,325 Descending Denver TRACON
Sat 03:04:57 PM 39.9667 -104.3500 242° Southwest 304 350 14,300 -1,053 Descending Denver TRACON
Sat 03:05:57 PM 39.9333 -104.4333 242° Southwest 283 326 13,200 -1,105 Descending Denver TRACON
Sat 03:06:51 PM 39.8833 -104.5000 226° Southwest 263 303 12,200 -1,186 Descending Denver TRACON
Sat 03:07:23 PM 39.8444 -104.5003 180° South 255 293 11,500 -903 Descending Denver Center
Sat 03:08:24 PM 39.7744 -104.5011 181° South 251 289 10,800 -927 Descending Denver Center
Sat 03:09:26 PM 39.7053 -104.5028 181° South 250 288 9,600 -1,016 Descending Denver Center
Sat 03:10:28 PM 39.6389 -104.5047 181° South 223 257 8,700 -780 Descending Denver Center
Sat 03:11:29 PM 39.6261 -104.5783 257° West 223 257 8,000 -390 Descending Denver Center
Sat 03:12:31 PM 39.6614 -104.6350 309° West 233 268 7,900 -293 Descending Denver Center
Sat 03:13:32 PM 39.7239 -104.6433 354° North 212 244 7,400 -683 Descending Denver Center
Sat 03:14:34 PM 39.7769 -104.6425 North 195 224 6,500 -927 Descending Denver Center
Sat 03:15:35 PM 39.8233 -104.6417 North 160 184 5,500 -585 Descending Denver Center
Sat 03:16:37 PM 39.8517 -104.6417 360° North 135 155 5,300 -194 Descending Denver Center

Login

Don't have an account? Register now (free) for customized features, flight alerts, and more!